TimeCST,TemperatureF,Dew PointF,Humidity,Sea Level PressureIn,VisibilityMPH,Wind Direction,Wind SpeedMPH,Gust SpeedMPH,PrecipitationIn,Events,Conditions,WindDirDegrees,DateUTC
12:56 AM,27.1,20.1,75,30.25,10.0,Calm,Calm,-,N/A,,Clear,0,2014-01-04 06:56:00
1:56 AM,25.2,22.1,88,30.25,10.0,Calm,Calm,-,N/A,,Clear,0,2014-01-04 07:56:00
2:56 AM,26.1,21.0,81,30.24,10.0,Calm,Calm,-,N/A,,Clear,0,2014-01-04 08:56:00
3:56 AM,24.1,22.1,92,30.22,10.0,Calm,Calm,-,N/A,,Clear,0,2014-01-04 09:56:00
4:56 AM,24.1,23.0,96,30.19,10.0,Calm,Calm,-,N/A,,Clear,0,2014-01-04 10:56:00
5:56 AM,25.2,21.0,84,30.18,10.0,South,5.8,-,N/A,,Clear,180,2014-01-04 11:56:00
6:56 AM,27.1,21.0,78,30.17,10.0,Calm,Calm,-,N/A,,Scattered Clouds,0,2014-01-04 12:56:00
7:56 AM,28.0,22.1,78,30.17,10.0,Calm,Calm,-,N/A,,Mostly Cloudy,0,2014-01-04 13:56:00
8:56 AM,31.1,24.1,75,30.18,10.0,Calm,Calm,-,N/A,,Mostly Cloudy,0,2014-01-04 14:56:00
9:56 AM,34.0,27.1,76,30.16,10.0,SSE,4.6,-,N/A,,Overcast,150,2014-01-04 15:56:00
10:56 AM,37.9,29.1,71,30.13,10.0,SSE,6.9,-,N/A,,Overcast,150,2014-01-04 16:56:00
11:56 AM,41.0,31.1,68,30.07,10.0,SE,5.8,-,N/A,,Overcast,140,2014-01-04 17:56:00
12:56 PM,45.0,34.0,65,30.01,10.0,SE,5.8,-,N/A,,Overcast,140,2014-01-04 18:56:00
1:56 PM,48.9,36.9,63,29.97,10.0,SSE,5.8,-,N/A,,Overcast,150,2014-01-04 19:56:00
2:56 PM,52.9,39.9,61,29.95,10.0,SSE,8.1,-,N/A,,Overcast,160,2014-01-04 20:56:00
3:56 PM,52.9,41.9,66,29.94,10.0,SSE,6.9,-,N/A,,Overcast,150,2014-01-04 21:56:00
4:56 PM,52.0,43.0,71,29.93,10.0,SE,5.8,-,N/A,,Overcast,140,2014-01-04 22:56:00
5:56 PM,52.0,43.0,71,29.93,10.0,SE,5.8,-,N/A,,Overcast,140,2014-01-04 23:56:00
6:56 PM,50.9,41.9,71,29.93,10.0,SE,4.6,-,N/A,,Overcast,140,2014-01-05 00:56:00
7:56 PM,50.9,43.0,74,29.94,10.0,SE,4.6,-,N/A,,Overcast,140,2014-01-05 01:56:00
8:56 PM,50.9,43.0,74,29.93,10.0,SSE,4.6,-,N/A,,Overcast,160,2014-01-05 02:56:00
9:56 PM,50.9,43.0,74,29.93,10.0,Calm,Calm,-,N/A,,Mostly Cloudy,0,2014-01-05 03:56:00
10:56 PM,50.9,43.9,77,29.92,10.0,Calm,Calm,-,N/A,,Mostly Cloudy,0,2014-01-05 04:56:00
11:56 PM,54.9,46.9,75,29.91,10.0,South,6.9,-,N/A,,Mostly Cloudy,180,2014-01-05 05:56:00